Flag for Germany Weather past 2 weeks in Zwickau, Saxony, Germany

Now
57 °F

Light rain. Low clouds.


Feels Like: 58 °F
Forecast: 51 / 64 °F
Wind: 3 mph from Southwest

Location: Gera-Leumnitz

Current Time: Aug 31, 2014 at 5:19:44 AM

Latest Report: Aug 31, 2014 at 5:00 AM


Visibility: 5 mi

Pressure: 29.96 "Hg

Humidity: 96%

Dew point: 56 °F

Location of ZwickauLocation

Historic Weather in Zwickau — Graph

°F

Zwickau temperature yesterday

Maximum temperature yesterday: 69 °F (at 4:00 PM)
Minimum temperature yesterday: 56 °F (at 7:00 AM)
Average temperature yesterday: 62 °F

Past Weeks' High & Low Weather Summary

 TemperatureHumidityPressure
High71 °F (Aug 28, 6:00 PM)97% (Aug 26, 11:00 PM)30.11 "Hg (Aug 26, 11:00 PM)
Low46 °F (Aug 20, 6:00 AM)32% (Aug 22, 5:00 PM)29.70 "Hg (Aug 26, 9:00 AM)
Average57 °F74%29.95 "Hg
* Reported Aug 16 4:00 AM — Aug 31 4:00 AM, Zwickau, Weather by CustomWeather, © 2014

Note: Actual official high and low records may vary slightly from our data, if they occured in-between our weather recording intervals... More about our weather records

Advertising

Zwickau weather history for previous 24 hours

 ConditionsComfort  
Time TempWeatherWind HumidityBarometerVisibility
4:00 AM
Aug 31
58 °FRain. Low clouds.6 mph93%29.99 "Hg2 mi
3:00 AM59 °FLight rain. Overcast.5 mph87%29.99 "Hg10 mi
2:00 AM59 °FOvercast.5 mph89%30.00 "Hg9 mi
1:00 AM59 °FOvercast.3 mph88%30.01 "Hg11 mi
12:00 AM60 °FLight rain. Low clouds.3 mph84%30.02 "Hg22 mi
11:00 PM
Aug 30
62 °FOvercast.3 mph79%30.02 "Hg19 mi
10:00 PM62 °FOvercast.3 mph78%30.02 "Hg34 mi
9:00 PM64 °FOvercast.3 mph74%30.02 "Hg28 mi
7:00 PM67 °FOvercast.5 mph61%30.01 "Hg43 mi
6:00 PM67 °FPartly sunny.5 mph62%30.01 "Hg43 mi
5:00 PM67 °FPartly sunny.5 mph62%30.02 "Hg37 mi
4:00 PM69 °FPartly sunny.6 mph55%30.02 "Hg37 mi
3:00 PM68 °FOvercast.6 mph59%30.03 "Hg37 mi
2:00 PM66 °FOvercast.5 mph66%30.04 "Hg25 mi
1:00 PM67 °FPartly sunny.3 mph59%30.05 "Hg22 mi
12:00 PM66 °FOvercast.6 mph66%30.05 "Hg25 mi
11:00 AM65 °FPartly sunny.5 mph71%30.05 "Hg25 mi
10:00 AM62 °FPartly sunny.5 mph82%30.05 "Hg22 mi
9:00 AM60 °FOvercast.3 mph91%30.06 "Hg14 mi
8:00 AM58 °FFog.3 mph96%30.05 "Hg4 mi
7:00 AM56 °FFog.2 mph97%30.04 "Hg4 mi
6:00 AM57 °FOvercast.3 mph96%30.03 "Hg4 mi
5:00 AM58 °FLight rain. Low clouds.3 mph95%30.04 "Hg2 mi
Weather by CustomWeather, © 2014

See weather overviewHow to use our weather pages